Location: ????????
(55.0808°N, 38.5463°E)
Time: 01:47:00
(UTC+00:00)

Nimbus 3 Rocket - Pass Details

Date: 26 September 2024
Orbit: 1072 x 1131 km, 99.9° (Epoch: 03 October)

Event Time Altitude Azimuth Distance (km) Brightness Sun altitude
Rises 21:12:44 0° 19° (NNE) 3,905 9.0 -36.6°
Reaches altitude 10° 21:15:22 10° 24° (NNE) 2,938 8.1 -36.6°
Enters shadow 21:19:59 43° 51° (NE) 1,489 6.0 -36.6°
